CAPE
840 1062 1354 1579 1672 1561 1427 1469 1502 1577 1688 1760 1853 1799 1568 1534 1715 1847 1774 1820 1640 1436 1159 1012 970 921 476 167 109 84 53 126
825 1029 1242 1400 1399 1261 1084 1307 1415 1503 1609 1612 1606 1564 1502 1441 1534 1728 1572 1602 1522 1314 1023 954 923 864 250 130 55 30 0 68
651 830 970 1088 1249 1233 1100 1273 1330 1404 1486 1502 1320 1122 1242 1338 1281 1496 1473 1327 1257 1202 930 891 875 652 113 125 0 1 0 0
561 696 538 616 1027 1316 1351 1356 1365 1388 1391 1279 1097 889 896 1139 1157 1290 1285 1028 1059 875 796 699 617 7 0 24 0 0 0 0
443 547 511 748 1050 938 881 1008 1031 1199 986 839 907 813 709 822 807 908 862 785 627 578 443 292 226 0 0 0 0 0 0 0
436 421 449 477 654 584 636 729 740 817 1080 450 698 1075 665 547 505 480 458 399 316 182 41 26 0 0 0 0 0 0 0 0
512 413 421 435 439 484 507 454 569 547 778 667 706 931 878 532 352 207 162 53 124 32 0 0 0 0 0 0 0 0 0 0
644 507 446 458 485 377 428 494 620 521 657 904 733 892 844 463 273 168 55 5 2 13 0 0 0 0 0 0 0 0 0 0
1267 748 503 503 560 381 316 403 411 439 564 740 914 699 601 408 335 169 100 0 0 0 0 0 0 0 0 0 0 0 0 0
1594 1450 923 702 688 747 582 467 479 444 416 535 759 773 574 381 311 228 60 14 0 0 0 0 0 0 1 1 1 0 0 0
1029 1603 1408 1183 989 1049 941 775 765 704 568 557 595 719 710 550 436 181 33 46 10 7 1 0 0 0 1 0 1 1 0 0
923 1440 1579 1493 1375 909 615 691 783 728 817 779 646 678 727 661 496 163 103 30 30 14 59 0 14 33 1 1 1 0 0 1
626 805 1398 1521 1466 992 803 1110 957 796 903 948 780 867 674 697 662 258 219 168 24 9 0 12 41 79 2 5 1 2 3 5
97 516 1024 1454 1587 1402 1304 1260 1009 1023 832 1013 882 938 799 801 689 499 567 448 39 20 131 63 95 55 29 3 14 1 2 7
0 291 658 1269 1508 906 367 317 218 295 538 908 1009 733 899 936 679 584 394 369 142 72 142 133 54 26 0 3 5 3 5 6
0 50 143 380 643 669 855 931 859 815 865 1088 659 663 758 925 679 514 566 508 346 186 176 152 53 52 9 0 0 0 4 4
0 0 0 0 0 1 5 80 76 16 200 552 321 586 587 696 788 590 508 402 395 232 83 48 17 9 9 1 0 0 0 0
0 0 0 0 0 0 0 0 0 4 65 283 203 223 408 469 548 545 587 271 172 64 23 17 7 0 0 0 0 5 2 0
0 0 0 0 0 0 0 0 0 0 0 37 96 19 169 385 246 257 284 170 60 18 0 0 0 0 0 0 0 0 2 2
0 0 0 0 0 0 0 0 0 0 0 0 28 94 106 286 115 198 169 11 0 0 0 0 0 0 0 0 0 0 0 0
CIN
-531 -420 -306 -245 -198 -192 -213 -186 -156 -104 -79 -67 -51 -51 -68 -77 -53 -29 -31 -13 -35 -43 -63 -73 -50 -41 -100 -134 -150 -173 -188 -149
-526 -424 -332 -279 -261 -261 -280 -237 -187 -126 -101 -90 -83 -80 -77 -70 -55 -36 -46 -31 -42 -56 -65 -74 -53 -37 -151 -131 -148 -199 -0 -167
-571 -457 -398 -347 -290 -259 -264 -230 -199 -156 -118 -105 -115 -139 -109 -85 -79 -46 -40 -54 -56 -60 -72 -77 -63 -57 -164 -128 -0 -41 -0 -0
-591 -569 -507 -460 -340 -249 -208 -193 -175 -161 -145 -143 -161 -182 -175 -124 -103 -63 -43 -70 -68 -82 -85 -89 -89 -28 -0 -146 -0 -0 -0 -0
-587 -579 -628 -440 -340 -342 -326 -272 -247 -200 -234 -238 -206 -201 -207 -174 -158 -121 -105 -90 -120 -122 -126 -145 -138 -0 -0 -0 -0 -0 -0 -0
-597 -568 -577 -559 -458 -432 -395 -351 -324 -288 -235 -354 -264 -162 -221 -241 -229 -202 -183 -174 -172 -198 -243 -234 -0 -0 -0 -0 -0 -0 -0 -0
-561 -568 -571 -536 -506 -485 -446 -444 -392 -376 -309 -315 -293 -221 -214 -260 -282 -282 -280 -320 -248 -288 -0 -0 -0 -0 -0 -0 -0 -0 -0 -0
-509 -536 -549 -528 -497 -532 -517 -475 -419 -408 -362 -296 -312 -263 -247 -301 -319 -312 -347 -391 -130 -373 -0 -0 -0 -0 -0 -0 -0 -0 -0 -0
-414 -507 -508 -469 -462 -514 -514 -498 -480 -453 -410 -347 -292 -317 -315 -335 -315 -323 -332 -0 -0 -0 -0 -0 -0 -0 -0 -0 -0 -0 -0 -0
-356 -338 -436 -435 -427 -410 -450 -476 -466 -459 -445 -396 -321 -304 -322 -350 -333 -317 -353 -370 -0 -0 -0 -0 -0 -0 -0 -0 -0 -0 -0 -0
-397 -320 -376 -396 -396 -367 -364 -374 -359 -370 -383 -379 -349 -298 -284 -306 -298 -337 -379 -341 -261 -416 -25 -0 -0 -0 -0 -0 -0 -0 -4 -2
-338 -345 -356 -366 -335 -353 -403 -378 -334 -347 -329 -319 -321 -289 -266 -273 -282 -348 -328 -360 -352 -391 -271 -0 -225 -156 -0 -0 -0 -0 -0 -3
-358 -390 -381 -326 -282 -346 -354 -290 -315 -316 -296 -286 -274 -227 -251 -235 -230 -293 -268 -259 -386 -379 -1 -295 -210 -137 -47 -37 -0 -34 -43 -50
-512 -393 -383 -355 -294 -324 -300 -300 -330 -306 -300 -264 -268 -213 -222 -201 -211 -219 -169 -157 -321 -355 -204 -235 -145 -176 -134 -33 -3 -1 -20 -21
-0 -389 -364 -336 -273 -372 -495 -459 -449 -388 -304 -253 -234 -249 -188 -165 -206 -197 -196 -186 -240 -282 -199 -166 -135 -208 -9 -15 -21 -14 -40 -33
-152 -256 -548 -437 -354 -328 -311 -278 -250 -281 -266 -239 -286 -245 -213 -154 -201 -216 -158 -134 -151 -201 -168 -152 -188 -166 -153 -0 -0 -0 -41 -19
-0 -0 -0 -0 -0 -152 -473 -331 -326 -135 -350 -267 -334 -255 -225 -175 -152 -169 -182 -173 -135 -171 -201 -223 -230 -203 -174 -0 -0 -0 -0 -0
-0 -0 -0 -0 -0 -0 -0 -0 -0 -88 -345 -287 -303 -284 -210 -184 -150 -143 -140 -207 -198 -215 -274 -245 -274 -0 -0 -0 -0 -35 -9 -8
-0 -0 -0 -0 -0 -0 -0 -0 -0 -0 -0 -283 -258 -308 -238 -187 -171 -170 -151 -200 -224 -249 -0 -0 -0 -0 -0 -0 -0 -15 -53 -34
-0 -0 -0 -0 -0 -0 -0 -0 -0 -0 -0 -0 -248 -164 -173 -157 -208 -152 -158 -236 -0 -0 -0 -0 -0 -0 -0 -0 -0 -25 -2 -10
Wind_Speed
10 11 12 13 13 14 15 16 16 14 13 12 12 11 11 12 12 11 10 11 12 12 11 10 10 9 10 10 10 10 6 4
11 12 13 12 10 12 13 14 15 14 13 12 11 11 11 10 9 10 10 10 11 12 10 9 9 9 10 9 8 8 5 5
12 12 12 12 12 9 10 12 13 13 11 11 9 5 7 8 6 8 9 10 10 10 11 9 9 9 11 10 8 3 5 3
12 14 12 11 10 11 10 11 8 9 8 8 5 5 5 7 7 8 8 9 10 10 11 9 8 5 4 7 3 4 4 4
12 11 13 12 10 8 6 6 7 6 9 7 7 5 4 4 3 3 4 6 3 5 5 4 5 5 4 4 4 4 3 3
14 12 11 11 8 9 10 8 7 8 9 7 6 5 5 5 4 4 4 4 5 4 3 4 5 5 6 5 5 4 3 3
15 14 14 12 10 9 10 10 8 9 10 9 7 9 9 5 4 4 5 4 5 5 4 4 5 5 5 6 6 5 5 3
14 16 14 14 12 12 10 9 9 9 9 11 11 8 8 6 5 5 5 6 5 6 6 5 4 5 5 5 5 4 5 5
17 17 14 14 14 10 8 8 8 8 8 10 12 9 8 8 6 6 6 5 6 4 4 3 4 3 4 4 4 5 4 5
14 13 15 14 12 9 8 8 8 7 7 7 10 10 9 8 7 6 5 5 6 5 5 4 4 4 3 4 4 4 5 5
13 15 16 16 13 10 9 8 7 6 6 7 9 10 10 8 6 6 7 6 6 6 3 4 5 6 4 3 3 4 4 4
13 14 15 16 11 6 4 5 5 5 7 7 9 8 10 8 6 7 7 6 6 6 7 4 4 6 5 5 4 3 4 5
12 14 15 11 10 10 7 10 9 6 7 8 8 9 10 10 6 7 8 8 8 8 5 7 4 5 3 1 2 5 6 6
15 16 15 13 12 12 6 8 6 7 6 8 10 10 10 10 10 8 9 7 8 9 10 4 3 7 4 2 2 2 5 7
15 17 14 13 10 6 4 5 4 3 3 5 9 10 10 11 11 10 10 8 9 11 10 10 6 5 5 5 2 4 2 4
11 10 9 8 7 5 5 4 3 4 6 6 7 11 11 11 11 11 11 9 9 10 9 9 8 7 3 3 2 4 3 2
15 15 14 12 13 8 4 5 2 1 1 5 5 8 10 12 12 11 11 8 8 10 10 10 8 7 5 3 2 1 2 2
15 16 13 11 11 11 10 12 5 1 1 3 4 4 7 10 11 11 12 11 11 10 12 13 10 8 8 6 5 4 5 3
13 13 14 10 11 10 9 8 5 5 4 3 4 3 4 9 10 10 9 10 10 10 12 12 11 10 10 8 6 6 3 5
14 14 14 13 12 10 7 6 3 3 4 5 4 6 8 9 11 11 12 10 9 10 9 9 11 10 11 8 7 7 7 6
Wind_Direction
152 159 172 166 163 161 159 156 153 157 162 165 162 156 156 160 163 157 156 151 149 149 153 160 149 149 119 132 129 135 135 153
157 164 170 170 164 162 162 154 156 159 164 168 162 160 159 165 167 169 165 158 156 158 156 169 156 142 130 140 123 123 137 154
164 167 169 170 168 167 163 157 159 161 164 168 161 162 164 166 169 176 170 157 163 158 158 171 150 132 130 149 135 146 149 149
177 163 168 165 166 169 169 171 170 171 171 171 162 157 161 164 168 173 176 165 168 162 157 159 142 123 145 158 149 160 164 171
181 176 159 167 168 167 170 176 176 175 176 166 169 167 161 162 158 173 170 171 162 152 151 148 151 140 155 154 159 168 179 171
178 177 172 170 160 172 175 176 179 184 187 171 164 175 176 171 171 171 163 164 163 163 165 163 146 164 152 162 175 168 177 179
187 176 178 179 172 171 176 182 182 187 187 185 174 186 188 171 167 169 168 159 168 168 170 167 154 165 164 166 185 186 181 187
178 188 186 178 187 186 182 179 180 181 184 189 188 186 182 174 170 175 171 175 172 173 175 175 171 163 176 176 184 183 191 195
186 185 181 188 192 190 188 185 179 185 186 184 188 184 178 174 172 177 176 175 165 148 142 141 149 163 181 169 174 187 196 202
192 186 182 183 190 186 189 185 183 188 185 184 189 186 180 173 176 181 163 165 170 173 164 165 172 174 166 183 188 180 193 202
185 186 182 185 185 184 181 181 184 183 179 184 191 189 181 177 178 171 164 168 177 175 158 166 184 196 178 179 182 191 187 189
193 186 187 187 180 162 143 151 175 173 184 187 184 189 186 177 171 168 168 167 173 175 178 170 178 187 188 190 197 190 183 202
188 190 194 175 179 169 176 189 185 186 187 177 179 186 185 185 180 172 173 181 181 178 160 185 179 158 116 160 194 195 199 207
192 193 189 186 187 195 182 178 190 176 178 185 184 188 183 184 180 183 184 179 178 177 177 148 167 172 148 122 208 218 214 214
193 193 187 189 183 134 86 92 71 104 164 188 193 184 187 187 184 179 183 180 187 181 181 175 169 186 176 151 174 214 162 195
84 80 79 76 87 99 130 161 169 188 173 188 187 185 191 189 185 180 185 187 189 186 186 192 165 178 178 194 109 140 195 204
78 78 71 69 73 74 108 93 102 358 70 180 183 191 194 197 194 191 181 186 197 183 178 189 188 174 182 147 162 171 152 198
78 75 64 60 72 69 63 67 12 124 213 214 208 196 198 204 204 201 196 185 184 186 185 190 187 188 188 178 172 179 202 185
74 75 67 52 56 59 54 60 27 11 340 213 207 217 215 210 207 196 202 198 196 193 185 185 187 190 184 191 190 214 168 201
53 52 54 41 41 38 42 45 31 331 309 320 259 211 220 222 205 207 204 192 190 194 194 186 181 185 192 195 198 211 210 204